Алтыарык

Узбекистан     40°23′29″N   71°28′30″E
темп.,
°C
ветер,
м/с
пор.,
м/с
влажн.,
%
обл.,
%
осадки,
мм/ч
давл.,
гПа
погр.,
м
25 февраля, чт
чт2523:00+4зюз141945100 0.0 1021981
02:00+2зюз152041100 0.0 1023749
05:00−1зюз131840100 0.0 1027798
08:00−3зюз121834100 0.0 1032565
11:000з6925100 0.1 1033961
14:00+2зсз5519100 0.0 10331532
17:000зсз4421100 0.0 1035898
20:00−2сз4529100 0.0 1037486
26 февраля, пт
пт2623:00−3зсз2332100 0.0 1038310
02:00−4сз1235100 0.0 103779
05:00−5сз1141100 0.0 103626
08:00−4св114096 0.0 1036152
11:000ссв222651 0.0 1032884
14:00+2всв222313 0.0 10281295
17:00+3всв11227 0.0 10291257
20:00+1ссв23300 0.0 103172
27 февраля, сб
сб2723:000всв23401 0.0 103151
02:00−2всв2351100 0.0 103092
05:00−2всв2250100 0.0 103141
08:00−1всв1146100 0.0 103190
11:00+2ссв2230100 0.0 1030648
14:00+4св1124100 0.1 1029927
17:00+4всв2222100 0.1 1031833
20:00+2св363223 0.0 1036134
28 февраля, вс
вс2823:000всв345411 0.0 103599
02:00−1в23530 0.0 103429
05:00−2вюв22550 0.0 103221
08:00−1св12470 0.0 103098
11:00+5в22320 0.0 1025540
14:00+9всв33230 0.0 10221025
17:00+10всв33210 0.0 10221033
20:00+6в23300 0.0 102530
1 марта, пн
пн123:00+3всв33450 0.0 102653
02:00+2всв12500 0.0 102524
05:00+1всв11520 0.0 102522
08:00+2в224659 0.0 102682
11:00+8св222848 0.0 1023521
14:00+12всв22200 0.0 1021872
17:00+13всв12170 0.0 1021853
20:00+9всв22220 0.0 102522